Location: Antin
(43.3330°N, 0.2804°E)
Time: 12:12:38
(UTC+00:00)

SME Rocket - Pass Details

Date: 07 June 2022
Orbit: 551 x 2650 km, 99.9° (Epoch: 03 July)

Event Time Altitude Azimuth Distance (km) Brightness Sun altitude
Exits shadow 01:07:49 40° 151° (SSE) 1,137 4.0 -22.0°
Maximum altitude 01:09:39 78° 72° (ENE) 872 3.7 -21.9°
Drops below altitude 10° 01:16:19 10° 347° (NNW) 3,109 7.4 -21.5°
Sets 01:19:33 0° 346° (NNW) 4,398 8.3 -21.3°
